Worthington, MN

7:05 AM CST on December 06, 2019 (GMT -0600)
Worthington Municipal

Weather History for KOTG - November, 2019

Change the Weather History Date:

Tuesday, November 12, 2019

  Actual Average Record
Temperature  
Mean Temperature 10 °F -  
Max Temperature 21 °F 41 °F 68 °F (1971)
Min Temperature 0 °F 25 °F -2 °F (1986)
Degree Days  
Heating Degree Days 56    
Moisture  
Dew Point 5 °F    
Average Humidity 76    
Maximum Humidity 88    
Minimum Humidity 65    
Precipitation  
Precipitation 0.00 in - - ()
Sea Level Pressure  
Sea Level Pressure 30.36 in    
Wind  
Wind Speed 13 mph (SSW)    
Max Wind Speed 26 mph    
Max Gust Speed 34 mph    
Visibility 10 miles    
Events      
Averages and records for this station are not official NWS values.
T = Trace of Precipitation, MM = Missing Value Source: NWS Daily Summary

Daily Weather History Graph

Daily Weather History Graph

Search for Another Location

Airport or City:

Astronomy

Nov. 12, 2019 Rise Set
Actual Time 7:12 AM CST 5:00 PM CST
Civil Twilight 6:41 AM CST 5:30 PM CST
Nautical Twilight 6:06 AM CST 6:05 PM CST
Astronomical Twilight 5:33 AM CST 6:39 PM CST
Moon 5:28 PM CST (11/12) 7:03 AM CST (11/12)
Length of Visible Light 10h 49m
Length of Day
9h 47m
Full, 100% of the Moon is Illuminated
Nov 12
Full
Nov 19
Last Quarter
Nov 26
New
Dec 4
First Quarter
Dec 11
Full

Hourly Weather History & Observations

Time (CST) Temp. Windchill Dew Point Humidity Pressure Visibility Wind Dir Wind Speed Gust Speed Precip Events Conditions
12:56 AM 1.0 °F -10.3 °F -4.0 °F 79% 30.71 in 10.0 mi West 5.8 mph - N/A   Clear
1:56 AM 1.9 °F -7.6 °F -2.0 °F 83% 30.69 in 10.0 mi WSW 4.6 mph - N/A   Clear
2:56 AM -0.9 °F -11.0 °F -4.0 °F 87% 30.69 in 10.0 mi WSW 4.6 mph - N/A   Clear
3:56 AM -0.9 °F -11.0 °F -5.1 °F 83% 30.67 in 10.0 mi WSW 4.6 mph - N/A   Clear
4:56 AM -0.0 °F -9.9 °F -2.9 °F 88% 30.64 in 10.0 mi SSW 4.6 mph - N/A   Clear
5:56 AM 1.0 °F -10.3 °F -2.0 °F 87% 30.62 in 10.0 mi SSW 5.8 mph - N/A   Clear
6:56 AM 1.9 °F -11.8 °F -2.0 °F 83% 30.60 in 10.0 mi South 8.1 mph - N/A   Clear
7:56 AM 3.9 °F -11.3 °F -0.0 °F 84% 30.58 in 10.0 mi South 10.4 mph - N/A   Clear
8:56 AM 8.1 °F -9.0 °F 1.9 °F 76% 30.56 in 10.0 mi South 15.0 mph - N/A   Clear
9:56 AM 10.9 °F -8.3 °F 3.9 °F 73% 30.51 in 10.0 mi South 21.9 mph - N/A   Clear
10:56 AM 14.0 °F -3.0 °F 7.0 °F 74% 30.45 in 10.0 mi SSW 18.4 mph 26.5 mph N/A   Clear
11:56 AM 17.1 °F -1.7 °F 8.1 °F 68% 30.38 in 10.0 mi South 26.5 mph 29.9 mph N/A   Clear
12:56 PM 19.0 °F 2.0 °F 9.0 °F 65% 30.34 in 10.0 mi South 23.0 mph 29.9 mph N/A   Clear
1:56 PM 19.0 °F 1.6 °F 9.0 °F 65% 30.28 in 10.0 mi South 24.2 mph 28.8 mph N/A   Clear
2:56 PM 19.0 °F 1.6 °F 10.0 °F 68% 30.22 in 10.0 mi South 24.2 mph 32.2 mph N/A   Clear
3:56 PM 18.0 °F 0.2 °F 10.0 °F 71% 30.19 in 10.0 mi South 24.2 mph 31.1 mph N/A   Clear
4:56 PM 18.0 °F 0.9 °F 10.9 °F 74% 30.18 in 10.0 mi South 21.9 mph 29.9 mph N/A   Clear
5:56 PM 18.0 °F 0.6 °F 10.9 °F 74% 30.14 in 10.0 mi South 23.0 mph 31.1 mph N/A   Clear
6:56 PM 18.0 °F 1.3 °F 10.9 °F 74% 30.12 in 10.0 mi South 20.7 mph 31.1 mph N/A   Clear
7:56 PM 18.0 °F 0.2 °F 12.0 °F 78% 30.08 in 10.0 mi South 24.2 mph 27.6 mph N/A   Clear
8:56 PM 18.0 °F -0.5 °F 12.0 °F 78% 30.02 in 10.0 mi South 26.5 mph 32.2 mph N/A   Clear
9:56 PM 19.0 °F 1.0 °F 12.0 °F 74% 29.99 in 10.0 mi South 26.5 mph 34.5 mph N/A   Clear
10:56 PM 19.0 °F 3.2 °F 12.9 °F 77% 29.98 in 10.0 mi South 19.6 mph - N/A   Overcast
11:56 PM 21.0 °F 5.7 °F 12.9 °F 71% 29.95 in 10.0 mi SSW 19.6 mph - N/A   Overcast